GW5502 Weather Reports


time (UTC)temp
F
wind
direction
speed
knots
gust
knots
rain 1hr
in
rain 24hr
in
rain mn
in
humidity
%
barometer
mb
20260505173009 82 0.0 0.0 0.00 0.00 0.00 73
20260505172514 80 0.0 0.0 0.00 0.00 0.00 74
20260505172009 80 0.0 0.0 0.00 0.00 0.00 73
20260505171514 82 0.0 0.0 0.00 0.00 0.00 72
20260505171009 81 0.0 0.0 0.00 0.00 0.00 74
20260505170514 82 0.0 0.0 0.00 0.00 0.00 70
20260505170010 83 0.0 0.0 0.00 0.00 0.00 70
20260505165514 82 0.0 0.0 0.00 0.00 0.00 72
20260505165010 80 0.0 0.0 0.00 0.00 0.00 74
20260505164515 80 0.0 0.0 0.00 0.00 0.00 73
20260505164010 80 0.0 0.0 0.00 0.00 0.00 73
20260505163515 80 0.0 0.0 0.00 0.00 0.00 73
20260505163011 80 0.0 0.0 0.00 0.00 0.00 73
20260505162516 80 0.0 0.0 0.00 0.00 0.00 72
20260505162011 81 0.0 0.0 0.00 0.00 0.00 72
20260505161516 81 0.0 0.0 0.00 0.00 0.00 72
20260505161011 80 0.0 0.0 0.00 0.00 0.00 73
20260505160516 80 0.0 0.0 0.00 0.00 0.00 73
20260505153012 80 0.0 0.0 0.00 0.00 0.00 72
20260505152507 80 0.0 0.0 0.00 0.00 0.00 73
20260505152012 80 0.0 0.0 0.00 0.00 0.00 71
20260505151507 81 0.0 0.0 0.00 0.00 0.00 71
20260505151012 81 0.0 0.0 0.00 0.00 0.00 71
20260505150508 81 0.0 0.0 0.00 0.00 0.00 71
20260505140509 79 0.0 0.0 0.00 0.00 0.00 75
20260505125006 76 0.0 0.0 0.00 0.00 0.00 83
20260505124512 76 0.0 0.0 0.00 0.00 0.00 84
20260505124007 76 0.0 0.0 0.00 0.00 0.00 84
20260505123512 76 0.0 0.0 0.00 0.00 0.00 84
20260505123007 76 0.0 0.0 0.00 0.00 0.00 84
20260505122512 76 0.0 0.0 0.00 0.00 0.00 84
20260505122007 76 0.0 0.0 0.00 0.00 0.00 85
20260505121512 75 0.0 0.0 0.00 0.00 0.00 86
20260505121009 75 0.0 0.0 0.00 0.00 0.00 87
20260505120513 74 0.0 0.0 0.00 0.00 0.00 88
20260505120008 73 0.0 0.0 0.00 0.00 0.00 91
20260505115513 72 0.0 0.0 0.00 0.00 0.00 92
20260505115010 72 0.0 0.0 0.00 0.00 0.00 93
20260505114513 71 0.0 0.0 0.00 0.00 0.00 93
20260505114010 71 0.0 0.0 0.00 0.00 0.00 94
20260505113514 70 0.0 0.0 0.00 0.00 0.00 95
20260505113009 70 0.0 0.0 0.00 0.00 0.00 96
20260505112515 69 0.0 0.0 0.00 0.00 0.00 96
20260505112010 69 0.0 0.0 0.00 0.00 0.00 96
20260505111514 69 0.0 0.0 0.00 0.00 0.00 97
20260505111010 69 0.0 0.0 0.00 0.00 0.00 97
20260505110515 69 0.0 0.0 0.00 0.00 0.00 98
20260505102011 65 0.0 0.0 0.00 0.00 0.00 99
20260505101508 64 0.0 0.0 0.00 0.00 0.00 99
20260505101011 64 0.0 0.0 0.00 0.00 0.00 98
20260505100507 64 0.0 0.0 0.00 0.00 0.00 98
20260505100012 64 0.0 0.0 0.00 0.00 0.00 98
20260505095507 64 0.0 0.0 0.00 0.00 0.00 98
20260505095012 64 0.0 0.0 0.00 0.00 0.00 98
20260505094508 64 0.0 0.0 0.00 0.00 0.00 98
20260505094013 64 0.0 0.0 0.00 0.00 0.00 98
20260505093508 64 0.0 0.0 0.00 0.00 0.00 98
20260505093013 64 0.0 0.0 0.00 0.00 0.00 98
20260505092509 64 0.0 0.0 0.00 0.00 0.00 98
20260505092014 64 0.0 0.0 0.00 0.00 0.00 98
20260505091509 65 0.0 0.0 0.00 0.00 0.00 98
20260505091014 65 0.0 0.0 0.00 0.00 0.00 98
20260505090509 65 0.0 0.0 0.00 0.00 0.00 98
20260505090014 65 0.0 0.0 0.00 0.00 0.00 98
20260505085509 64 0.0 0.0 0.00 0.00 0.00 98
20260505085015 64 0.0 0.0 0.00 0.00 0.00 98
20260505084510 64 0.0 0.0 0.00 0.00 0.00 98
20260505084015 64 0.0 0.0 0.00 0.00 0.00 98
20260505083510 64 0.0 0.0 0.00 0.00 0.00 98
20260505083016 64 0.0 0.0 0.00 0.00 0.00 98
20260505082511 64 0.0 0.0 0.00 0.00 0.00 98
20260505082016 64 0.0 0.0 0.00 0.00 0.00 97
20260505081511 64 0.0 0.0 0.00 0.00 0.00 97
20260505081016 64 0.0 0.0 0.00 0.00 0.00 98
20260505080511 64 0.0 0.0 0.00 0.00 0.00 97
20260505080006 64 0.0 0.0 0.00 0.00 0.00 97
20260505075511 65 0.0 0.0 0.00 0.00 0.00 97
20260505075006 65 0.0 0.0 0.00 0.00 0.00 97
20260505074512 65 0.0 0.0 0.00 0.00 0.00 97
20260505074007 65 0.0 0.0 0.00 0.00 0.00 97
20260505073512 65 0.0 0.0 0.00 0.00 0.00 97
20260505073007 64 0.0 0.0 0.00 0.00 0.00 97
20260505072512 65 0.0 0.0 0.00 0.00 0.00 97
20260505072007 65 0.0 0.0 0.00 0.00 0.00 96
20260505071513 65 0.0 0.0 0.00 0.00 0.00 97
20260505071008 65 0.0 0.0 0.00 0.00 0.00 96
20260505070513 65 0.0 0.0 0.00 0.00 0.00 96
20260505070009 65 0.0 0.0 0.00 0.00 0.00 97
20260505065515 65 0.0 0.0 0.00 0.00 0.00 96
20260505065009 65 0.0 0.0 0.00 0.00 0.00 97
20260505064514 65 0.0 0.0 0.00 0.00 0.00 96
20260505064009 65 0.0 0.0 0.00 0.00 0.00 96
20260505063514 65 0.0 0.0 0.00 0.00 0.00 97
20260505063009 65 0.0 0.0 0.00 0.00 0.00 96
20260505062516 65 0.0 0.0 0.00 0.00 0.00 96
20260505062010 65 0.0 0.0 0.00 0.00 0.00 96
20260505061516 66 0.0 0.0 0.00 0.00 0.00 97
20260505061010 65 0.0 0.0 0.00 0.00 0.00 97
20260505060515 65 0.0 0.0 0.00 0.00 0.00 97
20260505060010 65 0.0 0.0 0.00 0.00 0.00 97
20260505055516 65 0.0 0.0 0.00 0.00 0.00 96
20260505055011 65 0.0 0.0 0.00 0.00 0.00 96
20260505054516 65 0.0 0.0 0.00 0.00 0.00 96
20260505054011 65 0.0 0.0 0.00 0.00 0.00 97
20260505053516 65 0.0 0.0 0.00 0.00 0.00 97
20260505053011 65 0.0 0.0 0.00 0.00 0.00 97
20260505052506 64 0.0 0.0 0.00 0.00 0.00 97
20260505052011 64 0.0 0.0 0.00 0.00 0.00 96
20260505051507 64 0.0 0.0 0.00 0.00 0.00 96
20260505051012 64 0.0 0.0 0.00 0.00 0.00 96
20260505050507 64 0.0 0.0 0.00 0.00 0.00 96
20260505041509 66 0.0 0.0 0.00 0.00 0.00 93
20260505041013 66 0.0 0.0 0.00 0.00 0.00 93
20260505040509 66 0.0 0.0 0.00 0.00 0.00 92
20260505040016 66 0.0 0.0 0.00 0.00 0.00 92
20260505035509 66 0.0 0.0 0.00 0.00 0.00 91
20260505035014 67 0.0 0.0 0.00 0.00 0.00 91
20260505034510 67 0.0 0.0 0.00 0.00 0.00 91
20260505034015 67 0.0 0.0 0.00 0.00 0.00 91
20260505033510 68 0.0 0.0 0.00 0.00 0.00 91
20260505033015 67 0.0 0.0 0.00 0.00 0.00 91
20260505032510 67 0.0 0.0 0.00 0.00 0.00 90
20260505032016 68 0.0 0.0 0.00 0.00 0.00 89
20260505031511 68 0.0 0.0 0.00 0.00 0.00 89
20260505031016 68 0.0 0.0 0.00 0.00 0.00 89
20260505030511 68 0.0 0.0 0.00 0.00 0.00 88
20260505030006 69 0.0 0.0 0.00 0.00 0.00 88
20260505025511 68 0.0 0.0 0.00 0.00 0.00 89
20260505025007 68 0.0 0.0 0.00 0.00 0.00 89
20260505024511 68 0.0 0.0 0.00 0.00 0.00 90
20260505024007 68 0.0 0.0 0.00 0.00 0.00 89
20260505023512 68 0.0 0.0 0.00 0.00 0.00 89
20260505023007 68 0.0 0.0 0.00 0.00 0.00 89
20260505022512 68 0.0 0.0 0.00 0.00 0.00 89
20260505022008 68 0.0 0.0 0.00 0.01 0.00 89
20260505021512 68 0.0 0.0 0.00 0.01 0.00 89
20260505021008 68 0.0 0.0 0.00 0.01 0.00 89
20260505020513 68 0.0 0.0 0.00 0.01 0.00 89
20260505020008 68 0.0 0.0 0.00 0.01 0.00 88
20260505015513 68 0.0 0.0 0.00 0.01 0.00 88
20260505015008 68 0.0 0.0 0.00 0.01 0.00 88
20260505014513 68 0.0 0.0 0.00 0.01 0.00 88
20260505014009 69 0.0 0.0 0.00 0.01 0.00 87
20260505013514 69 0.0 0.0 0.00 0.01 0.00 86
20260505013010 70 0.0 0.0 0.00 0.01 0.00 85
20260505012514 70 0.0 0.0 0.00 0.01 0.00 84
20260505012009 70 0.0 0.0 0.00 0.01 0.00 84
20260505011514 71 0.0 0.0 0.00 0.01 0.00 83
20260505011010 71 0.0 0.0 0.00 0.01 0.00 83
20260505010515 71 0.0 0.0 0.00 0.01 0.00 83
20260505010010 71 0.0 0.0 0.00 0.01 0.00 82
20260505005515 72 0.0 0.0 0.00 0.01 0.00 82
20260505005011 72 0.0 0.0 0.00 0.03 0.00 81
20260505004515 72 0.0 0.0 0.00 0.04 0.00 81
20260505004011 72 0.0 0.0 0.00 0.04 0.00 81
20260505003515 72 0.0 0.0 0.00 0.04 0.00 80
20260505003011 72 0.0 0.0 0.00 0.04 0.00 80
20260505002516 73 0.0 0.0 0.00 0.04 0.00 79
20260505002011 73 0.0 0.0 0.00 0.04 0.00 79
20260505001516 73 0.0 0.0 0.00 0.04 0.00 78
20260505001012 73 0.0 0.0 0.00 0.04 0.00 78
20260505000507 74 0.0 0.0 0.00 0.04 0.00 77
20260505000012 74 0.0 0.0 0.00 0.04 0.00 77
20260504235507 74 0.0 0.0 0.00 0.04 0.00 77
20260504235012 74 0.0 0.0 0.00 0.04 0.00 77
20260504234507 74 0.0 0.0 0.00 0.04 0.00 77
20260504234013 75 0.0 0.0 0.00 0.04 0.00 77
20260504233508 75 0.0 0.0 0.00 0.04 0.00 76
20260504233013 75 0.0 0.0 0.00 0.04 0.00 75
20260504232508 75 0.0 0.0 0.00 0.04 0.00 75
20260504232013 76 0.0 0.0 0.00 0.04 0.00 75
20260504231508 76 0.0 0.0 0.00 0.04 0.00 74
20260504231013 76 0.0 0.0 0.00 0.04 0.00 74
20260504230508 76 0.0 0.0 0.00 0.04 0.00 74
20260504230015 76 0.0 0.0 0.00 0.04 0.00 74
20260504225509 76 0.0 0.0 0.00 0.04 0.00 74
20260504225014 76 0.0 0.0 0.00 0.04 0.00 74
20260504224509 76 0.0 0.0 0.00 0.04 0.00 74
20260504224015 76 0.0 0.0 0.00 0.04 0.00 74
20260504223509 76 0.0 0.0 0.00 0.04 0.00 74
20260504223015 76 0.0 0.0 0.00 0.04 0.00 74
20260504222510 76 0.0 0.0 0.00 0.05 0.00 74
20260504222015 76 0.0 0.0 0.00 0.05 0.00 73
20260504221511 77 0.0 0.0 0.00 0.05 0.00 73
20260504221016 77 0.0 0.0 0.00 0.05 0.00 73
20260504220510 76 0.0 0.0 0.00 0.05 0.00 73
20260504220016 76 0.0 0.0 0.00 0.05 0.00 73
20260504215510 77 0.0 0.0 0.00 0.05 0.00 73
20260504214511 77 0.0 0.0 0.00 0.05 0.00 72
20260504214006 77 0.0 0.0 0.00 0.05 0.00 73
20260504213512 77 0.0 0.0 0.00 0.05 0.00 73
20260504213008 77 0.0 0.0 0.00 0.05 0.00 72
20260504212512 77 0.0 0.0 0.00 0.05 0.00 72
20260504212007 77 0.0 0.0 0.00 0.05 0.00 73
20260504211512 77 0.0 0.0 0.00 0.05 0.00 73
20260504211007 77 0.0 0.0 0.00 0.05 0.00 72
20260504210512 77 0.0 0.0 0.00 0.05 0.00 72
20260504210007 77 0.0 0.0 0.00 0.05 0.00 72
20260504205513 77 0.0 0.0 0.00 0.05 0.00 72
20260504205008 78 0.0 0.0 0.00 0.05 0.00 72
20260504204513 78 0.0 0.0 0.00 0.05 0.00 71
20260504204008 78 0.0 0.0 0.00 0.05 0.00 71
20260504203513 78 0.0 0.0 0.00 0.05 0.00 72
20260504203008 78 0.0 0.0 0.00 0.05 0.00 73
20260504202514 78 0.0 0.0 0.00 0.05 0.00 72
20260504202008 78 0.0 0.0 0.00 0.05 0.00 73
20260504201515 78 0.0 0.0 0.00 0.05 0.00 73
20260504201008 77 0.0 0.0 0.00 0.05 0.00 74
20260504200514 78 0.0 0.0 0.00 0.05 0.00 74
20260504200013 78 0.0 0.0 0.00 0.05 0.00 72
20260504195514 79 0.0 0.0 0.00 0.05 0.00 72
20260504195010 79 0.0 0.0 0.00 0.05 0.00 72
20260504194515 78 0.0 0.0 0.00 0.05 0.00 73
20260504194010 78 0.0 0.0 0.00 0.05 0.00 74
20260504193516 78 0.0 0.0 0.00 0.06 0.00 75
20260504193010 78 0.0 0.0 0.00 0.06 0.00 74
20260504192528 79 0.0 0.0 0.00 0.06 0.00 75
20260504192011 77 0.0 0.0 0.00 0.06 0.00 77
20260504191506 76 0.0 0.0 0.00 0.06 0.00 78
20260504191012 76 0.0 0.0 0.00 0.06 0.00 77
20260504190516 76 0.0 0.0 0.00 0.07 0.00 78
20260504190011 76 0.0 0.0 0.00 0.07 0.00 78
20260504185507 76 0.0 0.0 0.00 0.07 0.00 77
20260504185012 76 0.0 0.0 0.00 0.07 0.00 77
20260504184507 77 0.0 0.0 0.00 0.07 0.00 76
20260504184012 78 0.0 0.0 0.00 0.07 0.00 74
20260504183507 78 0.0 0.0 0.00 0.07 0.00 73
20260504183013 80 0.0 0.0 0.00 0.07 0.00 71
20260504182507 79 0.0 0.0 0.00 0.07 0.00 72
20260504182013 80 0.0 0.0 0.00 0.07 0.00 71
20260504181507 80 0.0 0.0 0.00 0.07 0.00 71
20260504181013 79 0.0 0.0 0.00 0.07 0.00 73
20260504180508 78 0.0 0.0 0.00 0.07 0.00 73
20260504180013 79 0.0 0.0 0.00 0.07 0.00 72
20260504175508 79 0.0 0.0 0.00 0.07 0.00 72
20260504175014 78 0.0 0.0 0.00 0.07 0.00 74
20260504174508 78 0.0 0.0 0.00 0.07 0.00 73
20260504174014 79 0.0 0.0 0.00 0.07 0.00 73
20260504173509 78 0.0 0.0 0.00 0.07 0.00 75